1517608800.23,28251,4.88,72034.5,-9.81,-10.67,-10.67,0,*5C
1517608801.49,28252,4.81,72034.0,-9.81,-10.67,-10.67,0,*5F
1517608802.76,28253,4.88,72040.5,-9.81,-10.67,-10.67,0,*5E
1517608804.02,28254,4.88,72040.8,-9.79,-10.63,-10.63,0,*5E
1517608805.29,28255,4.88,72042.5,-9.79,-10.63,-10.63,0,*5F
1517608806.55,28256,4.88,72042.3,-9.79,-10.63,-10.63,0,*5C
1517608807.81,28257,4.88,72040.5,-9.79,-10.63,-10.63,0,*5D
1517608809.07,28258,4.81,72034.5,-9.79,-10.63,-10.63,0,*52
1517608810.33,28259,4.88,72034.8,-9.79,-10.63,-10.63,0,*53
1517608811.59,28260,4.88,72036.5,-9.79,-10.63,-10.63,0,*59
1517608812.86,28261,4.88,72038.3,-9.79,-10.63,-10.63,0,*58
1517608814.12,28262,4.88,72036.8,-9.79,-10.63,-10.63,0,*5B
1517608815.38,28263,4.88,72036.8,-9.79,-10.63,-10.63,0,*5A
1517608816.64,28264,4.88,72042.8,-9.79,-10.63,-10.63,0,*5D
1517608817.88,28265,4.88,72042.0,-9.79,-10.63,-10.57,0,*5B
1517608819.14,28266,4.88,72044.8,-9.79,-10.63,-10.63,0,*5F
1517608820.4,28267,4.88,72040.5,-9.81,-10.63,-10.67,0,*5D
1517608821.67,28268,4.88,72046.3,-9.81,-10.67,-10.67,0,*56
1517608822.93,28269,4.88,72050.0,-9.81,-10.63,-10.67,0,*53
1517608824.19,28270,4.88,72040.5,-9.79,-10.63,-10.63,0,*58
1517608825.42,28271,4.88,72042.0,-9.79,-10.57,-10.63,0,*5E
1517608826.66,28272,4.88,72046.8,-9.79,-10.63,-10.57,0,*5D
1517608827.92,28273,4.88,72044.3,-9.79,-10.63,-10.63,0,*5B
1517608829.18,28274,4.88,72042.8,-9.79,-10.63,-10.63,0,*5C
1517608830.44,28275,4.88,72044.8,-9.79,-10.63,-10.63,0,*5D
1517608831.68,28276,4.88,72042.5,-9.79,-10.63,-10.57,0,*59
1517608832.94,28277,4.88,72040.3,-9.79,-10.63,-10.63,0,*5F
1517608834.2,28278,4.88,72046.8,-9.79,-10.63,-10.63,0,*50
1517608835.47,28279,4.88,72044.3,-9.79,-10.63,-10.63,0,*51
1517608836.73,28280,4.88,72042.3,-9.79,-10.67,-10.63,0,*53
1517608837.99,28281,4.88,72046.0,-9.79,-10.67,-10.63,0,*52
1517608839.26,28282,4.88,72044.0,-9.79,-10.67,-10.63,0,*51
1517608840.52,28283,4.88,72040.5,-9.81,-10.71,-10.71,0,*53
1517608841.77,28284,4.88,72042.3,-9.81,-10.71,-10.71,0,*54
1517608843.03,28285,4.88,72044.3,-9.81,-10.71,-10.71,0,*55
1517608844.28,28286,4.88,72040.8,-9.81,-10.71,-10.71,0,*56
1517608845.54,28287,4.88,72042.5,-9.81,-10.71,-10.79,0,*5F
1517608846.8,28288,4.88,72042.3,-9.81,-10.79,-10.79,0,*58
1517608848.05,28289,4.88,72040.8,-9.81,-10.79,-10.79,0,*59
1517608849.31,28290,4.88,72042.3,-9.81,-10.79,-10.71,0,*59
1517608850.56,28291,4.88,72046.8,-9.81,-10.79,-10.71,0,*58
1517608851.81,28292,4.88,72040.5,-9.81,-10.71,-10.71,0,*53
1517608853.07,28293,4.88,72042.5,-9.81,-10.71,-10.79,0,*5A
1517608854.34,28294,4.88,72040.5,-9.79,-10.67,-10.67,0,*52
1517608855.6,28295,4.88,72044.3,-9.79,-10.75,-10.67,0,*50
1517608856.86,28296,4.88,72044.8,-9.79,-10.75,-10.75,0,*50
1517608858.12,28297,4.88,72042.8,-9.81,-10.79,-10.79,0,*56
1517608859.37,28298,4.88,72042.5,-9.81,-10.79,-10.79,0,*59
1517608860.63,28299,4.88,72042.5,-9.81,-10.79,-10.79,0,*58
1517608861.88,28300,4.88,72038.3,-9.81,-10.71,-10.71,0,*59
1517608863.14,28301,4.88,72036.5,-9.81,-10.71,-10.71,0,*58
1517608864.39,28302,4.88,72038.5,-9.81,-10.79,-10.79,0,*5B
1517608865.65,28303,4.88,72040.0,-9.81,-10.71,-10.79,0,*52
1517608866.91,28304,4.88,72038.5,-9.81,-10.71,-10.79,0,*55
1517608868.17,28305,4.88,72038.8,-9.81,-10.71,-10.71,0,*5C
1517608869.44,28306,4.88,72038.5,-9.83,-10.71,-10.71,0,*5D
1517608870.7,28307,4.88,72036.5,-9.81,-10.71,-10.71,0,*5E
1517608871.98,28308,4.88,72040.5,-9.83,-10.71,-10.71,0,*53
1517608873.24,28309,4.88,72042.3,-9.81,-10.71,-10.71,0,*50
1517608874.49,28310,4.88,72038.3,-9.81,-10.71,-10.71,0,*58
1517608875.75,28311,4.88,72038.5,-9.81,-10.71,-10.67,0,*5E
1517608877.02,28312,4.88,72042.0,-9.81,-10.71,-10.67,0,*5D
1517608878.28,28313,4.88,72044.3,-9.81,-10.71,-10.67,0,*5C
1517608879.54,28314,4.88,72046.8,-9.81,-10.71,-10.67,0,*5B
1517608880.8,28315,4.88,72040.8,-9.81,-10.71,-10.71,0,*5D
1517608882.08,28316,4.88,72042.0,-9.83,-10.71,-10.71,0,*5C
1517608883.36,28317,4.88,72040.5,-9.83,-10.67,-10.71,0,*5A
1517608884.64,28318,4.88,72042.8,-9.83,-10.67,-10.71,0,*55
1517608885.9,28319,4.88,72046.0,-9.81,-10.67,-10.71,0,*56
1517608887.17,28320,4.88,72042.8,-9.81,-10.67,-10.67,0,*5B
1517608888.43,28321,4.88,72042.0,-9.81,-10.67,-10.67,0,*5A
1517608889.7,28322,4.88,72042.8,-9.81,-10.67,-10.67,0,*59
1517608890.97,28323,4.88,72040.8,-9.81,-10.67,-10.67,0,*58
1517608892.23,28324,4.88,72040.5,-9.81,-10.67,-10.67,0,*5F
1517608893.5,28325,4.88,72040.5,-9.81,-10.67,-10.67,0,*5E
1517608894.77,28326,4.88,72040.5,-9.81,-10.67,-10.67,0,*5D
1517608896.03,28327,4.88,72038.0,-9.81,-10.67,-10.67,0,*5C
1517608897.3,28328,4.88,72036.0,-9.81,-10.67,-10.67,0,*53
1517608898.57,28329,4.88,72034.3,-9.81,-10.67,-10.67,0,*52
1517608899.83,28330,4.88,72032.5,-9.81,-10.71,-10.67,0,*5D
1517608901.09,28331,4.88,72036.5,-9.81,-10.71,-10.67,0,*5C
1517608902.35,28332,4.88,72032.3,-9.81,-10.71,-10.67,0,*5F
1517608903.64,28333,4.88,72036.5,-9.83,-10.71,-10.67,0,*5C
1517608904.93,28334,4.88,72038.5,-9.83,-10.71,-10.67,0,*5B
1517608906.19,28335,4.88,72038.3,-9.81,-10.67,-10.67,0,*5F
1517608907.48,28336,4.88,72034.3,-9.83,-10.67,-10.67,0,*5E
1517608908.75,28337,4.88,72034.8,-9.81,-10.67,-10.67,0,*5D
1517608910.01,28338,4.88,72032.8,-9.81,-10.67,-10.67,0,*52
1517608911.28,28339,4.88,72040.3,-9.81,-10.67,-10.67,0,*53
1517608912.55,28340,4.88,72036.5,-9.81,-10.67,-10.67,0,*5D
1517608913.81,28341,4.88,72036.8,-9.81,-10.67,-10.67,0,*5C
1517608915.08,28342,4.88,72032.8,-9.81,-10.67,-10.67,0,*5F
1517608916.35,28343,4.88,72038.3,-9.81,-10.67,-10.67,0,*5E
1517608917.61,28344,4.88,72036.5,-9.81,-10.67,-10.63,0,*5D
1517608918.9,28345,4.88,72036.3,-9.83,-10.63,-10.67,0,*5E
1517608920.16,28346,4.88,72038.3,-9.81,-10.67,-10.67,0,*5B
1517608921.43,28347,4.88,72036.8,-9.81,-10.67,-10.67,0,*5A
1517608922.69,28348,4.88,72040.0,-9.81,-10.71,-10.63,0,*56
1517608923.94,28349,4.88,72042.3,-9.81,-10.71,-10.71,0,*54
1517608925.2,28350,4.88,72040.5,-9.81,-10.71,-10.71,0,*5C
1517608926.46,28351,4.88,72042.0,-9.81,-10.67,-10.71,0,*5A
1517608927.72,28352,4.88,72040.5,-9.81,-10.67,-10.71,0,*59
1517608928.98,28353,4.88,72038.8,-9.81,-10.67,-10.71,0,*58
1517608930.24,28354,4.88,72038.8,-9.81,-10.67,-10.71,0,*5F
1517608931.5,28355,4.88,72040.3,-9.81,-10.67,-10.71,0,*5E
1517608932.76,28356,4.88,72036.8,-9.81,-10.67,-10.71,0,*5D
1517608934.02,28357,4.88,72042.5,-9.81,-10.67,-10.71,0,*5C
1517608935.29,28358,4.88,72044.8,-9.81,-10.67,-10.67,0,*54
1517608936.55,28359,4.88,72042.8,-9.81,-10.67,-10.67,0,*55
1517608937.82,28360,4.88,72040.5,-9.81,-10.67,-10.67,0,*5F
1517608939.08,28361,4.88,72040.0,-9.81,-10.67,-10.67,0,*5E
1517608940.37,28362,4.88,72042.5,-9.83,-10.67,-10.63,0,*5B
1517608941.66,28363,4.88,72040.3,-9.83,-10.67,-10.67,0,*5E
1517608942.92,28364,4.88,72040.8,-9.81,-10.67,-10.63,0,*5F
1517608944.21,28365,4.88,72042.0,-9.83,-10.67,-10.67,0,*58
1517608945.48,28366,4.88,72042.3,-9.81,-10.67,-10.63,0,*5D
1517608946.77,28367,4.88,72038.3,-9.83,-10.67,-10.67,0,*5A
1517608948.03,28368,4.88,72042.8,-9.81,-10.67,-10.63,0,*53
1517608949.3,28369,4.88,72034.0,-9.81,-10.67,-10.67,0,*56
1517608950.56,28370,4.88,72034.5,-9.81,-10.67,-10.67,0,*5E
1517608951.83,28371,4.88,72036.8,-9.81,-10.67,-10.67,0,*5F
1517608953.1,28372,4.88,72036.3,-9.81,-10.67,-10.67,0,*5C
1517608954.36,28373,4.88,72036.3,-9.81,-10.67,-10.67,0,*5D
1517608955.63,28374,4.88,72032.8,-9.81,-10.67,-10.67,0,*5A
1517608956.9,28375,4.88,72028.5,-9.81,-10.67,-10.67,0,*5B
1517608958.16,28376,4.88,72028.5,-9.81,-10.67,-10.67,0,*58
1517608959.43,28377,4.88,72028.3,-9.81,-10.67,-10.67,0,*59
1517608960.7,28378,4.88,72030.5,-9.81,-10.67,-10.67,0,*56
1517608961.96,28379,4.88,72030.3,-9.81,-10.67,-10.67,0,*57
1517608963.25,28380,4.88,72030.5,-9.83,-10.67,-10.67,0,*53
1517608964.51,28381,4.88,72030.8,-9.81,-10.71,-10.67,0,*57
1517608965.77,28382,4.88,72034.3,-9.81,-10.71,-10.63,0,*50
1517608967.04,28383,4.88,72024.5,-9.81,-10.71,-10.67,0,*55
1517608968.3,28384,4.88,72026.0,-9.81,-10.71,-10.67,0,*52
1517608969.56,28385,4.88,72030.3,-9.81,-10.67,-10.63,0,*50
1517608970.85,28386,4.88,72028.5,-9.83,-10.67,-10.63,0,*51
1517608972.11,28387,4.88,72034.3,-9.81,-10.63,-10.63,0,*56
1517608973.37,28388,4.88,72028.8,-9.81,-10.67,-10.67,0,*59
1517608974.64,28389,4.88,72032.3,-9.81,-10.67,-10.63,0,*5C
1517608975.9,28390,4.88,72034.8,-9.81,-10.67,-10.67,0,*50
1517608977.17,28391,4.88,72028.0,-9.81,-10.67,-10.67,0,*51
1517608978.43,28392,4.88,72032.3,-9.79,-10.63,-10.63,0,*55
1517608979.7,28393,4.88,72032.5,-9.79,-10.67,-10.63,0,*50
1517608980.96,28394,4.88,72028.8,-9.81,-10.71,-10.67,0,*53
1517608982.22,28395,4.88,72032.5,-9.81,-10.71,-10.67,0,*52
1517608983.49,28396,4.88,72034.5,-9.81,-10.71,-10.67,0,*51
1517608984.75,28397,4.88,72034.0,-9.81,-10.71,-10.67,0,*50
1517608986.0,28398,4.88,72032.0,-9.81,-10.71,-10.71,0,*58
1517608987.26,28399,4.88,72028.8,-9.81,-10.71,-10.71,0,*59
1517608988.53,28400,4.88,72030.8,-9.79,-10.67,-10.67,0,*59
1517608989.79,28401,4.88,72026.8,-9.79,-10.67,-10.75,0,*5B
1517608991.05,28402,4.88,72032.0,-9.79,-10.75,-10.67,0,*58
1517608992.31,28403,4.88,72030.0,-9.81,-10.79,-10.71,0,*55
1517608993.56,28404,4.88,72034.8,-9.81,-10.71,-10.71,0,*5A
1517608994.82,28405,4.88,72032.0,-9.81,-10.71,-10.79,0,*53
1517608996.08,28406,4.88,72032.0,-9.81,-10.71,-10.71,0,*58
1517608997.33,28407,4.88,72034.8,-9.81,-10.71,-10.71,0,*59
1517608998.59,28408,4.88,72032.3,-9.81,-10.71,-10.71,0,*56
1517608999.84,28409,4.88,72034.0,-9.81,-10.79,-10.71,0,*5F
1517609001.1,28410,4.88,72038.8,-9.81,-10.71,-10.71,0,*5F
1517609002.35,28411,4.88,72036.5,-9.81,-10.79,-10.79,0,*5E
1517609003.63,28412,4.88,72030.8,-9.83,-10.79,-10.71,0,*57
1517609004.89,28413,4.88,72030.3,-9.81,-10.71,-10.79,0,*54
1517609006.14,28414,4.88,72032.8,-9.81,-10.79,-10.71,0,*53
1517609007.4,28415,4.88,72032.5,-9.81,-10.71,-10.79,0,*52
1517609008.66,28416,4.88,72036.0,-9.81,-10.71,-10.71,0,*59
1517609009.91,28417,4.88,72036.0,-9.81,-10.79,-10.79,0,*58
1517609011.17,28418,4.88,72036.3,-9.81,-10.71,-10.79,0,*5F
1517609012.42,28419,4.88,72038.3,-9.81,-10.79,-10.71,0,*5E
1517609013.68,28420,4.88,72034.8,-9.81,-10.79,-10.71,0,*54
1517609014.95,28421,4.88,72034.0,-9.83,-10.79,-10.79,0,*5F
1517609016.23,28422,4.88,72032.0,-9.83,-10.79,-10.71,0,*54
1517609017.48,28423,4.88,72034.8,-9.81,-10.79,-10.71,0,*57
1517609018.76,28424,4.88,72038.8,-9.83,-10.71,-10.71,0,*5A
1517609020.04,28425,4.88,72034.8,-9.83,-10.71,-10.71,0,*5B
1517609021.3,28426,4.88,72034.3,-9.81,-10.79,-10.79,0,*5A
1517609022.58,28427,4.88,72038.3,-9.83,-10.79,-10.79,0,*59
1517609023.83,28428,4.88,72034.3,-9.81,-10.79,-10.79,0,*54
1517609025.08,28429,4.88,72038.0,-9.81,-10.79,-10.71,0,*5D
1517609026.34,28430,4.88,72030.8,-9.81,-10.71,-10.79,0,*55
1517609027.6,28431,4.88,72034.3,-9.81,-10.79,-10.71,0,*54
1517609028.87,28432,4.88,72034.5,-9.83,-10.79,-10.79,0,*5D
1517609030.15,28433,4.88,72032.0,-9.83,-10.79,-10.79,0,*5C
1517609031.43,28434,4.88,72038.5,-9.83,-10.71,-10.79,0,*53
1517609032.71,28435,4.88,72036.5,-9.83,-10.79,-10.71,0,*52
1517609033.97,28436,4.88,72038.0,-9.81,-10.71,-10.79,0,*53
1517609035.25,28437,4.88,72036.8,-9.83,-10.71,-10.79,0,*50
1517609036.53,28438,4.88,72038.3,-9.83,-10.71,-10.79,0,*5F
1517609037.81,28439,4.88,72040.0,-9.83,-10.71,-10.71,0,*56
1517609039.09,28440,4.88,72036.5,-9.83,-10.71,-10.79,0,*50
1517609040.37,28441,4.88,72034.5,-9.83,-10.79,-10.79,0,*59
1517609041.65,28442,4.88,72036.5,-9.83,-10.71,-10.79,0,*52
1517609042.93,28443,4.88,72036.0,-9.83,-10.79,-10.79,0,*5B
1517609044.21,28444,4.88,72038.0,-9.83,-10.79,-10.79,0,*5C
1517609045.49,28445,4.88,72032.3,-9.83,-10.71,-10.79,0,*55
1517609046.77,28446,4.88,72038.3,-9.83,-10.79,-10.79,0,*5E
1517609048.05,28447,4.88,72036.0,-9.83,-10.79,-10.79,0,*5F
1517609049.29,28448,4.88,72038.8,-9.83,-10.79,-10.85,0,*53
1517609050.57,28449,4.88,72036.3,-9.83,-10.79,-10.79,0,*51
1517609051.82,28450,4.88,72040.3,-9.83,-10.85,-10.71,0,*52
1517609053.1,28451,4.88,72042.0,-9.83,-10.79,-10.79,0,*58
1517609054.38,28452,4.88,72040.3,-9.83,-10.79,-10.71,0,*53
1517609055.6,28453,4.88,72038.0,-9.81,-10.79,-10.85,0,*5B
1517609056.85,28454,4.88,72038.5,-9.81,-10.79,-10.79,0,*5F
1517609058.13,28455,4.88,72038.0,-9.83,-10.71,-10.79,0,*54
1517609059.42,28456,4.88,72036.0,-9.83,-10.71,-10.79,0,*57
1517609060.7,28457,4.88,72038.3,-9.83,-10.71,-10.71,0,*5E
1517609061.97,28458,4.88,72038.8,-9.83,-10.71,-10.71,0,*51
1517609063.25,28459,4.88,72036.0,-9.83,-10.79,-10.79,0,*50
1517609064.51,28460,4.88,72036.8,-9.81,-10.79,-10.71,0,*50
1517609065.78,28461,4.88,72036.5,-9.83,-10.79,-10.71,0,*53
1517609067.06,28462,4.88,72040.3,-9.83,-10.71,-10.79,0,*50
1517609068.34,28463,4.88,72036.5,-9.83,-10.71,-10.71,0,*59
1517609069.6,28464,4.88,72036.8,-9.81,-10.79,-10.71,0,*54
1517609070.87,28465,4.88,72040.3,-9.83,-10.79,-10.71,0,*57
1517609072.15,28466,4.88,72038.8,-9.83,-10.79,-10.71,0,*54
1517609073.43,28467,4.88,72036.0,-9.83,-10.71,-10.79,0,*55
1517609074.71,28468,4.88,72038.3,-9.83,-10.71,-10.79,0,*5A
1517609075.99,28469,4.88,72038.5,-9.83,-10.71,-10.71,0,*53
1517609077.27,28470,4.88,72038.8,-9.83,-10.71,-10.79,0,*53
1517609078.55,28471,4.88,72036.5,-9.83,-10.71,-10.71,0,*5A
1517609079.83,28472,4.88,72042.5,-9.83,-10.79,-10.79,0,*59
1517609081.11,28473,4.88,72042.3,-9.83,-10.79,-10.79,0,*58
1517609082.37,28474,4.88,72034.5,-9.85,-10.75,-10.75,0,*59
1517609083.63,28475,4.88,72036.0,-9.85,-10.75,-10.75,0,*58
1517609084.91,28476,4.88,72028.5,-9.83,-10.71,-10.79,0,*55
1517609086.19,28477,4.88,72030.5,-9.83,-10.79,-10.71,0,*54
1517609087.46,28478,4.88,72030.5,-9.83,-10.75,-10.71,0,*57
1517609088.74,28479,4.88,72030.8,-9.83,-10.79,-10.71,0,*5A
1517609090.0,28480,4.88,72030.0,-9.85,-10.75,-10.75,0,*52
1517609091.23,28481,4.88,72032.3,-9.85,-10.85,-10.75,0,*5C
1517609092.51,28482,4.88,72032.0,-9.83,-10.71,-10.71,0,*56
1517609093.77,28483,4.88,72034.5,-9.85,-10.75,-10.75,0,*51
1517609095.03,28484,4.88,72036.0,-9.85,-10.75,-10.75,0,*56
1517609096.31,28485,4.88,72034.8,-9.83,-10.71,-10.71,0,*51
1517609097.59,28486,4.88,72036.8,-9.83,-10.71,-10.71,0,*52
1517609098.87,28487,4.88,72036.5,-9.83,-10.71,-10.71,0,*53
1517609100.15,28488,4.88,72034.3,-9.83,-10.71,-10.79,0,*54
1517609101.43,28489,4.88,72032.3,-9.83,-10.79,-10.71,0,*55
1517609102.7,28490,4.88,72034.5,-9.83,-10.79,-10.71,0,*5D
1517609103.98,28491,4.88,72036.8,-9.83,-10.79,-10.79,0,*54
1517609105.26,28492,4.88,72038.0,-9.83,-10.79,-10.79,0,*57
1517609106.52,28493,4.88,72034.3,-9.85,-10.75,-10.75,0,*50
1517609107.8,28494,4.88,72038.3,-9.83,-10.71,-10.71,0,*51
1517609109.06,28495,4.88,72042.0,-9.85,-10.75,-10.75,0,*56
1517609110.29,28496,4.88,72038.5,-9.85,-10.85,-10.75,0,*5A
1517609111.57,28497,4.88,72036.5,-9.83,-10.71,-10.79,0,*5A
1517609112.85,28498,4.88,72038.5,-9.83,-10.71,-10.71,0,*5D
1517609114.13,28499,4.88,72040.3,-9.83,-10.71,-10.71,0,*5C
1517609115.39,28500,4.88,72042.0,-9.85,-10.75,-10.75,0,*5B
1517609116.62,28501,4.88,72042.0,-9.85,-10.75,-10.85,0,*55
1517609117.84,28502,4.88,72040.5,-9.87,-10.85,-10.85,0,*5B
1517609119.06,28503,4.88,72042.5,-9.85,-10.75,-10.85,0,*57
1517609120.26,28504,4.88,72040.8,-9.85,-10.85,-10.85,0,*5F
1517609121.54,28505,4.88,72042.5,-9.83,-10.79,-10.79,0,*58
1517609122.74,28506,4.88,72042.0,-9.85,-10.85,-10.85,0,*5D
1517609123.96,28507,4.88,72042.3,-9.87,-10.85,-10.85,0,*5E
1517609125.19,28508,4.88,72040.8,-9.85,-10.85,-10.75,0,*5C
1517609126.42,28509,4.88,72038.5,-9.85,-10.75,-10.85,0,*5D
1517609127.62,28510,4.88,72036.3,-9.85,-10.85,-10.85,0,*5A
1517609128.82,28511,4.88,72038.3,-9.85,-10.89,-10.85,0,*57
1517609130.05,28512,4.88,72038.0,-9.85,-10.75,-10.89,0,*5B
1517609131.26,28513,4.88,72036.5,-9.85,-10.85,-10.89,0,*55
1517609132.46,28514,4.88,72038.0,-9.85,-10.85,-10.85,0,*5E
1517609133.68,28515,4.88,72042.8,-9.87,-10.85,-10.85,0,*5D
1517609134.88,28516,4.88,72044.3,-9.85,-10.89,-10.85,0,*50
1517609136.11,28517,4.88,72040.8,-9.87,-10.85,-10.89,0,*53
1517609137.32,28518,4.88,72042.5,-9.85,-10.97,-10.89,0,*5D
1517609138.54,28519,4.88,72038.0,-9.87,-10.85,-10.89,0,*5D
1517609139.76,28520,4.88,72038.5,-9.85,-10.97,-10.89,0,*56
1517609140.96,28521,4.88,72042.0,-9.85,-10.89,-10.89,0,*58
1517609142.25,28522,4.88,72036.5,-9.87,-10.75,-10.75,0,*59
1517609143.51,28523,4.88,72036.0,-9.85,-10.75,-10.75,0,*5A
1517609144.79,28524,4.88,72030.8,-9.87,-10.75,-10.75,0,*5F
1517609146.05,28525,4.88,72034.5,-9.85,-10.75,-10.75,0,*5C
1517609147.3,28526,4.88,72038.8,-9.87,-10.85,-10.75,0,*52
1517609148.53,28527,4.88,72040.0,-9.87,-10.85,-10.85,0,*5C
1517609149.78,28528,4.88,72042.0,-9.87,-10.85,-10.75,0,*5C
1517609151.04,28529,4.88,72036.3,-9.87,-10.85,-10.75,0,*5D
1517609152.29,28530,4.88,72036.8,-9.87,-10.85,-10.75,0,*55
1517609153.54,28531,4.88,72038.3,-9.87,-10.75,-10.85,0,*54
1517609154.8,28532,4.88,72036.5,-9.87,-10.85,-10.75,0,*57
1517609156.02,28533,4.88,72036.8,-9.87,-10.85,-10.85,0,*59
1517609157.27,28534,4.88,72036.0,-9.87,-10.75,-10.85,0,*51
1517609158.53,28535,4.88,72034.5,-9.85,-10.75,-10.75,0,*5D
1517609159.78,28536,4.88,72036.8,-9.87,-10.75,-10.85,0,*53
1517609161.0,28537,4.88,72040.0,-9.87,-10.85,-10.85,0,*5D
1517609162.24,28538,4.88,72038.5,-9.85,-10.85,-10.75,0,*5F
1517609163.46,28539,4.88,72038.8,-9.87,-10.85,-10.85,0,*53
1517609164.69,28540,4.88,72036.0,-9.87,-10.97,-10.85,0,*5E
1517609165.94,28541,4.88,72040.8,-9.87,-10.85,-10.75,0,*53
1517609167.17,28542,4.88,72036.5,-9.87,-10.85,-10.85,0,*5F
1517609168.39,28543,4.88,72040.8,-9.87,-10.85,-10.85,0,*5E
1517609169.67,28544,4.88,72036.5,-9.87,-10.75,-10.75,0,*59
1517609170.92,28545,4.88,72038.3,-9.87,-10.75,-10.85,0,*57
1517609172.17,28546,4.88,72038.0,-9.87,-10.85,-10.75,0,*54
1517609173.46,28547,4.88,72036.5,-9.87,-10.75,-10.75,0,*5A
1517609174.74,28548,4.88,72038.3,-9.87,-10.75,-10.75,0,*55
1517609176.03,28549,4.88,72036.0,-9.87,-10.75,-10.75,0,*54
1517609177.26,28550,4.88,72038.3,-9.85,-10.85,-10.75,0,*51
1517609178.51,28551,4.88,72038.3,-9.87,-10.75,-10.85,0,*52
1517609179.79,28552,4.88,72036.3,-9.87,-10.75,-10.75,0,*5E
1517609181.05,28553,4.88,72036.8,-9.87,-10.85,-10.75,0,*50
1517609182.27,28554,4.88,72036.0,-9.87,-10.85,-10.85,0,*58
1517609183.55,28555,4.88,72038.0,-9.87,-10.75,-10.75,0,*59
1517609184.75,28556,4.88,72036.5,-9.85,-10.85,-10.85,0,*58
1517609185.95,28557,4.88,72042.5,-9.85,-10.85,-10.85,0,*59
1517609187.21,28558,4.88,72038.3,-9.87,-10.85,-10.75,0,*5B
1517609188.43,28559,4.88,72038.3,-9.87,-10.85,-10.85,0,*55
1517609189.65,28560,4.88,72042.3,-9.87,-10.85,-10.85,0,*5F
1517609190.91,28561,4.88,72038.3,-9.87,-10.85,-10.75,0,*51
1517609192.16,28562,4.88,72036.5,-9.87,-10.75,-10.85,0,*52
1517609193.38,28563,4.88,72038.5,-9.87,-10.85,-10.85,0,*5C
1517609194.66,28564,4.88,72038.8,-9.87,-10.75,-10.75,0,*5B
1517609195.91,28565,4.88,72038.0,-9.87,-10.75,-10.85,0,*55
1517609197.19,28566,4.88,72038.5,-9.87,-10.75,-10.75,0,*59
1517609198.42,28567,4.88,72036.5,-9.87,-10.85,-10.85,0,*58
1517609199.66,28568,4.88,72036.8,-9.87,-10.75,-10.85,0,*58
1517609200.95,28569,4.88,72040.3,-9.87,-10.75,-10.75,0,*56
1517609202.2,28570,4.88,72036.8,-9.87,-10.85,-10.75,0,*51
1517609203.45,28571,4.88,72036.8,-9.87,-10.75,-10.85,0,*50
1517609204.74,28572,4.88,72036.3,-9.87,-10.75,-10.75,0,*5C
1517609205.99,28573,4.88,72038.3,-9.87,-10.75,-10.85,0,*52
1517609207.27,28574,4.88,72032.8,-9.87,-10.75,-10.75,0,*5A
1517609208.53,28575,4.88,72036.3,-9.89,-10.79,-10.79,0,*55
1517609209.76,28576,4.88,72036.0,-9.89,-10.79,-10.89,0,*59
1517609210.97,28577,4.88,72038.3,-9.89,-10.89,-10.89,0,*57
1517609212.22,28578,4.88,72034.0,-9.87,-10.85,-10.75,0,*59
1517609213.5,28579,4.88,72036.3,-9.87,-10.75,-10.75,0,*57
1517609214.76,28580,4.88,72036.3,-9.87,-10.85,-10.75,0,*5E
1517609216.02,28581,4.88,72036.8,-9.87,-10.85,-10.75,0,*5F
1517609217.27,28582,4.88,72036.8,-9.87,-10.85,-10.75,0,*5C
1517609218.5,28583,4.88,72036.0,-9.87,-10.85,-10.85,0,*52
1517609219.75,28584,4.88,72038.3,-9.87,-10.75,-10.85,0,*5A
1517609220.99,28585,4.88,72032.5,-9.87,-10.75,-10.85,0,*5B
1517609222.25,28586,4.88,72032.8,-9.87,-10.85,-10.75,0,*58
1517609223.5,28587,4.88,72038.5,-9.87,-10.75,-10.85,0,*59
1517609224.78,28588,4.88,72038.8,-9.87,-10.75,-10.75,0,*59
1517609226.07,28589,4.88,72036.0,-9.87,-10.75,-10.75,0,*58
1517609227.35,28590,4.88,72040.3,-9.87,-10.75,-10.75,0,*50
1517609228.57,28591,4.88,72038.8,-9.87,-10.85,-10.85,0,*51
1517609229.83,28592,4.88,72036.5,-9.87,-10.85,-10.75,0,*5D
1517609231.08,28593,4.88,72038.3,-9.87,-10.75,-10.85,0,*5C
1517609232.34,28594,4.88,72038.5,-9.89,-10.79,-10.79,0,*5A
1517609233.57,28595,4.88,72036.5,-9.89,-10.89,-10.79,0,*54
1517609234.77,28596,4.88,72038.8,-9.89,-10.89,-10.89,0,*58
1517609236.03,28597,4.88,72040.0,-9.89,-10.79,-10.79,0,*59
1517609237.29,28598,4.88,72032.3,-9.89,-10.79,-10.79,0,*56
1517609238.55,28599,4.88,72036.3,-9.89,-10.79,-10.79,0,*57
1517609239.81,28600,4.88,72036.0,-9.89,-10.79,-10.79,0,*54
1517609241.07,28601,4.88,72038.0,-9.89,-10.79,-10.79,0,*55
1517609242.33,28602,4.88,72038.0,-9.89,-10.79,-10.79,0,*56
1517609243.58,28603,4.88,72038.3,-9.91,-10.79,-10.89,0,*51
1517609244.84,28604,4.94,72040.5,-9.89,-10.79,-10.79,0,*50
1517609246.1,28605,4.88,72036.8,-9.89,-10.79,-10.79,0,*51
1517609247.36,28606,4.88,72036.5,-9.89,-10.79,-10.79,0,*52
1517609248.62,28607,4.88,72038.8,-9.89,-10.79,-10.79,0,*53
1517609249.9,28608,4.88,72036.3,-9.91,-10.79,-10.79,0,*55
1517609251.19,28609,4.88,72038.5,-9.91,-10.79,-10.79,0,*54
1517609252.45,28610,4.88,72038.3,-9.89,-10.79,-10.75,0,*59
1517609253.74,28611,4.88,72036.0,-9.91,-10.75,-10.75,0,*5D
1517609254.99,28612,4.88,72036.3,-9.89,-10.75,-10.71,0,*53
1517609256.28,28613,4.88,72034.0,-9.91,-10.75,-10.75,0,*5F
1517609257.56,28614,4.88,72034.0,-9.91,-10.75,-10.75,0,*58
1517609258.83,28615,4.88,72032.3,-9.89,-10.75,-10.75,0,*50
1517609260.09,28616,4.88,72032.0,-9.89,-10.75,-10.75,0,*53
1517609261.34,28617,4.88,72032.0,-9.89,-10.75,-10.71,0,*56
1517609262.6,28618,4.88,72032.5,-9.89,-10.75,-10.75,0,*5D
1517609263.86,28619,4.88,72034.3,-9.89,-10.75,-10.75,0,*5C
1517609265.12,28620,4.88,72034.5,-9.89,-10.75,-10.71,0,*52
1517609266.38,28621,4.88,72034.0,-9.89,-10.75,-10.75,0,*57
1517609267.64,28622,4.88,72036.0,-9.89,-10.75,-10.71,0,*50
1517609268.9,28623,4.88,72038.0,-9.89,-10.75,-10.75,0,*55
1517609270.18,28624,4.88,72036.8,-9.87,-10.71,-10.71,0,*5C
1517609271.47,28625,4.88,72036.3,-9.87,-10.67,-10.71,0,*5A
1517609272.75,28626,4.88,72034.8,-9.87,-10.71,-10.71,0,*5E
1517609274.04,28627,4.88,72036.5,-9.87,-10.71,-10.67,0,*58
1517609275.32,28628,4.88,72036.8,-9.87,-10.71,-10.71,0,*50
1517609276.58,28629,4.88,72036.5,-9.89,-10.75,-10.75,0,*5F
1517609277.84,28630,4.88,72036.8,-9.89,-10.75,-10.75,0,*57
1517609279.13,28631,4.88,72036.0,-9.87,-10.71,-10.67,0,*5F
1517609280.42,28632,4.88,72042.3,-9.87,-10.71,-10.67,0,*5C
1517609281.7,28633,4.94,72042.3,-9.87,-10.71,-10.71,0,*5A
1517609282.98,28634,4.88,72038.5,-9.87,-10.71,-10.71,0,*5D
1517609284.27,28635,4.88,72042.5,-9.87,-10.71,-10.67,0,*5B
1517609285.55,28636,4.88,72042.8,-9.87,-10.71,-10.71,0,*5F
1517609286.81,28637,4.88,72040.5,-9.89,-10.75,-10.75,0,*50
1517609288.07,28638,4.88,72040.5,-9.89,-10.75,-10.75,0,*5F
1517609289.36,28639,4.88,72040.5,-9.87,-10.71,-10.71,0,*50
1517609290.64,28640,4.88,72046.0,-9.87,-10.75,-10.71,0,*5A
1517609291.89,28641,4.88,72040.0,-9.85,-10.75,-10.71,0,*59
1517609293.18,28642,4.88,72044.8,-9.87,-10.71,-10.75,0,*58
1517609294.44,28643,4.88,72044.5,-9.85,-10.71,-10.75,0,*5B
1517609295.73,28644,4.94,72046.5,-9.87,-10.71,-10.75,0,*5E
1517609296.98,28645,4.88,72042.0,-9.87,-10.75,-10.85,0,*54
1517609298.24,28646,4.88,72044.0,-9.89,-10.79,-10.79,0,*56
1517609299.49,28647,4.88,72042.3,-9.89,-10.79,-10.79,0,*57
1517609300.75,28648,4.94,72046.0,-9.89,-10.79,-10.79,0,*58
1517609301.99,28649,4.88,72042.5,-9.89,-10.89,-10.79,0,*56
1517609303.19,28650,4.94,72046.3,-9.89,-10.89,-10.89,0,*51
1517609304.45,28651,4.88,72042.8,-9.89,-10.79,-10.79,0,*50
1517609305.71,28652,4.88,72042.5,-9.89,-10.79,-10.79,0,*53
1517609306.92,28653,4.88,72042.8,-9.89,-10.89,-10.89,0,*52
1517609308.15,28654,4.88,72040.8,-9.89,-10.89,-10.79,0,*5A
1517609309.41,28655,4.94,72040.5,-9.89,-10.79,-10.79,0,*54
1517609310.64,28656,4.94,72042.8,-9.89,-10.79,-10.89,0,*58
1517609311.85,28657,4.88,72040.8,-9.89,-10.89,-10.89,0,*56